Miscellaneous Local Product
Issued by NWS Hastings, NE

Home | Current Version | Previous Version | Text Only | Print | Product List | Glossary Off
Versions: 1 2 3 4 5 6 7 8 9 10 11 12 13 14 15 16 17 18 19 20 21 22 23 24 25 26 27 28 29 30 31 32 33 34 35 36 37 38 39 40 41 42 43 44 45 46 47 48 49 50

000
AXUS43 KGID 240202
MISGRI

GID CWA HOURLY WEATHER ROUNDUP
NATIONAL WEATHER SERVICE HASTINGS NE
900 PM CDT SAT MAY 23 2015

NOTE: "FAIR" INDICATES FEW OR NO CLOUDS BELOW 12,000 FEET WITH NO
SIGNIFICANT WEATHER AND/OR OBSTRUCTIONS TO VISIBILITY.

...SOUTH CENTRAL NEBRASKA...

CITY           SKY/WX    TMP DP  RH WIND       PRES   REMARKS
GRAND ISLAND   CLOUDY    59  56  89 E12       30.01R
HASTINGS       CLOUDY    59  56  89 E12       29.98S
KEARNEY        CLOUDY    57  55  94 E12       30.00R
ORD            LGT RAIN  57  54  89 E6        30.01R
YORK           CLOUDY    59  59 100 E14       30.01S
AURORA         CLOUDY    60  59  97 E14       29.99S
LEXINGTON      LGT RAIN  58  57  94 E10       29.98S
HOLDREGE       CLOUDY    58  56  92 E10       29.98R FOG
HEBRON         CLOUDY    60  57  89 E10       29.96F

...NEBRASKA PANHANDLE...

CITY           SKY/WX    TMP DP  RH WIND       PRES   REMARKS
CHADRON        LGT RAIN  55  53  93 NE9       29.96S
ALLIANCE       CLOUDY    56  53  90 E13       29.94R
SCOTTSBLUFF    CLOUDY    55  54  96 SE6       29.92S
SIDNEY         RAIN      51  48  89 W3        29.93F FOG

...WESTERN AND NORTH CENTRAL NEBRASKA...

CITY           SKY/WX    TMP DP  RH WIND       PRES   REMARKS
VALENTINE      CLOUDY    55  54  96 E10       30.03R
AINSWORTH      RAIN      56  55  97 E8        30.04R
ONEILL         CLOUDY    58  56  91 E3        30.05S
BROKEN BOW     CLOUDY    57  56  96 E12       30.01R
IMPERIAL       CLOUDY    59  54  83 E13       29.91F
NORTH PLATTE   LGT RAIN  56  54  93 E14       29.98F
MCCOOK         CLOUDY    58  56  93 E15       29.93F

...EASTERN NEBRASKA...

CITY           SKY/WX    TMP DP  RH WIND       PRES   REMARKS
NORFOLK        CLOUDY    59  57  93 E6        30.03F
SO SIOUX CITY  CLOUDY    63  55  75 SE6       30.06S
TEKAMAH        CLOUDY    64  57  78 E6        30.04F
COLUMBUS       CLOUDY    59  52  77 E10       30.06R
ALBION         CLOUDY    58  54  85 E6        30.01S
OMAHA EPPLEY   CLOUDY    63  60  90 SE7       30.04R
OFFUTT AFB     CLOUDY    62  60  90 E9        30.03S
MILLARD        CLOUDY    63  60  90 CALM      30.03S
LINCOLN        CLOUDY    62  60  93 E10       30.02F
NEBRASKA CITY  CLOUDY    62  61  97 SE7       30.04S
BEATRICE       CLOUDY    61  59  94 E8        29.99F
FALLS CITY     RAIN      62  60  93 E12       30.03F FOG

...NORTHERN KANSAS...

CITY           SKY/WX    TMP DP  RH WIND       PRES   REMARKS
GOODLAND       HVY RAIN  56  50  80 SE15      29.90F
HILL CITY      LGT RAIN  58  57  97 E7        29.94R VSB 1
NORTON         DRIZZLE   57  55  94 E8        29.94F
PHILLIPSBURG   CLOUDY    63  61  94 E8        29.95R
SMITH CENTER   CLOUDY    57  55  94 E12G17    29.95R
HAYS           CLOUDY    59  52  77 E10       29.91S
RUSSELL        CLOUDY    58  57  97 E8        29.90R
CONCORDIA      CLOUDY    60  58  92 E7        29.93F
SALINA         CLOUDY    61  58  90 N6        29.89F
TOPEKA         RAIN      63  62  97 NE9       30.03F FOG



USA.gov is the U.S. government's official web portal to all federal, state and local government web resources and services.